Time,TemperatureF,DewpointF,PressureIn,WindDirection,WindDirectionDegrees,WindSpeedMPH,WindSpeedGustMPH,Humidity,HourlyPrecipIn,Conditions,Clouds,dailyrainin,SoftwareType,DateUTC
2013-05-18 00:01:00,66.5,65.3,29.94,ENE,78,0.0,0.0,96,0.00,,,0.00,Wunderground v.1.15,2013-05-18 05:01:00,
2013-05-18 00:07:00,66.5,65.3,29.94,ESE,110,0.0,2.0,96,0.00,,,0.00,Wunderground v.1.15,2013-05-18 05:07:00,
2013-05-18 00:12:00,66.6,65.4,29.94,East,101,0.0,1.0,96,0.00,,,0.00,Wunderground v.1.15,2013-05-18 05:12:00,
2013-05-18 00:18:00,66.5,65.3,29.94,ESE,107,0.0,1.0,96,0.00,,,0.00,Wunderground v.1.15,2013-05-18 05:18:00,
2013-05-18 00:25:00,66.5,65.3,29.95,East,84,0.0,0.0,96,0.00,,,0.00,Wunderground v.1.15,2013-05-18 05:25:00,
2013-05-18 00:31:00,66.6,65.4,29.94,SE,139,1.0,1.0,96,0.00,,,0.00,Wunderground v.1.15,2013-05-18 05:31:00,
2013-05-18 00:36:00,66.6,65.4,29.94,SE,124,1.0,3.0,96,0.00,,,0.00,Wunderground v.1.15,2013-05-18 05:36:00,
2013-05-18 00:42:00,66.6,65.4,29.94,ESE,109,2.0,2.0,96,0.00,,,0.00,Wunderground v.1.15,2013-05-18 05:42:00,
2013-05-18 00:48:00,66.6,65.4,29.94,ESE,105,0.0,2.0,96,0.00,,,0.00,Wunderground v.1.15,2013-05-18 05:48:00,
2013-05-18 00:54:00,66.6,65.4,29.94,ESE,110,0.0,1.0,96,0.00,,,0.00,Wunderground v.1.15,2013-05-18 05:54:00,
2013-05-18 01:00:00,66.6,65.4,29.94,ESE,118,0.0,0.0,96,0.00,,,0.00,Wunderground v.1.15,2013-05-18 06:00:00,
2013-05-18 01:06:00,66.6,65.4,29.93,ESE,118,0.0,0.0,96,0.00,,,0.00,Wunderground v.1.15,2013-05-18 06:06:00,
2013-05-18 01:11:00,66.6,65.4,29.93,ESE,118,0.0,0.0,96,0.00,,,0.00,Wunderground v.1.15,2013-05-18 06:11:00,
2013-05-18 01:17:00,66.6,65.4,29.93,ESE,119,0.0,0.0,96,0.00,,,0.00,Wunderground v.1.15,2013-05-18 06:17:00,
2013-05-18 01:23:00,66.6,65.7,29.93,SE,129,0.0,1.0,97,0.00,,,0.00,Wunderground v.1.15,2013-05-18 06:23:00,
2013-05-18 01:28:00,66.7,65.8,29.93,SE,129,0.0,1.0,97,0.00,,,0.00,Wunderground v.1.15,2013-05-18 06:28:00,
2013-05-18 01:34:00,66.7,65.8,29.93,SE,129,0.0,0.0,97,0.00,,,0.00,Wunderground v.1.15,2013-05-18 06:34:00,
2013-05-18 01:40:00,66.6,65.7,29.93,SE,129,0.0,0.0,97,0.00,,,0.00,Wunderground v.1.15,2013-05-18 06:40:00,
2013-05-18 01:46:00,66.6,65.4,29.93,SE,129,0.0,0.0,96,0.00,,,0.00,Wunderground v.1.15,2013-05-18 06:46:00,
2013-05-18 01:51:00,66.6,65.7,29.93,SE,129,0.0,0.0,97,0.00,,,0.00,Wunderground v.1.15,2013-05-18 06:51:00,
2013-05-18 01:57:00,66.6,65.7,29.93,SE,129,0.0,1.0,97,0.00,,,0.00,Wunderground v.1.15,2013-05-18 06:57:00,
2013-05-18 02:02:00,66.6,65.7,29.93,SE,130,0.0,0.0,97,0.00,,,0.00,Wunderground v.1.15,2013-05-18 07:02:00,
2013-05-18 02:07:00,66.5,65.6,29.93,SE,129,0.0,0.0,97,0.00,,,0.00,Wunderground v.1.15,2013-05-18 07:07:00,
2013-05-18 02:12:00,66.5,65.6,29.92,SE,130,0.0,0.0,97,0.00,,,0.00,Wunderground v.1.15,2013-05-18 07:12:00,
2013-05-18 02:17:00,66.4,65.5,29.92,SE,130,0.0,0.0,97,0.00,,,0.00,Wunderground v.1.15,2013-05-18 07:17:00,
2013-05-18 02:22:00,66.4,65.5,29.92,SE,130,0.0,0.0,97,0.00,,,0.00,Wunderground v.1.15,2013-05-18 07:22:00,
2013-05-18 02:27:00,66.4,65.5,29.93,SE,124,1.0,1.0,97,0.00,,,0.00,Wunderground v.1.15,2013-05-18 07:27:00,
2013-05-18 02:32:00,66.3,65.4,29.93,ENE,60,1.0,1.0,97,0.00,,,0.00,Wunderground v.1.15,2013-05-18 07:32:00,
2013-05-18 02:37:00,66.2,65.3,29.93,ENE,61,0.0,1.0,97,0.00,,,0.00,Wunderground v.1.15,2013-05-18 07:37:00,
2013-05-18 02:42:00,66.3,65.4,29.93,ENE,61,0.0,1.0,97,0.00,,,0.00,Wunderground v.1.15,2013-05-18 07:42:00,
2013-05-18 02:47:00,66.3,65.4,29.93,ENE,60,0.0,1.0,97,0.00,,,0.00,Wunderground v.1.15,2013-05-18 07:47:00,
2013-05-18 02:52:00,66.4,65.5,29.93,ENE,61,0.0,0.0,97,0.00,,,0.00,Wunderground v.1.15,2013-05-18 07:52:00,
2013-05-18 02:57:00,66.4,65.5,29.93,ENE,61,0.0,1.0,97,0.00,,,0.00,Wunderground v.1.15,2013-05-18 07:57:00,
2013-05-18 03:02:00,66.4,65.5,29.94,ENE,61,0.0,1.0,97,0.00,,,0.00,Wunderground v.1.15,2013-05-18 08:02:00,
2013-05-18 03:07:00,66.5,65.6,29.94,ENE,61,0.0,1.0,97,0.00,,,0.00,Wunderground v.1.15,2013-05-18 08:07:00,
2013-05-18 03:12:00,66.5,65.6,29.94,ENE,61,0.0,1.0,97,0.00,,,0.00,Wunderground v.1.15,2013-05-18 08:12:00,
2013-05-18 03:17:00,66.5,65.6,29.94,NNE,33,0.0,1.0,97,0.00,,,0.00,Wunderground v.1.15,2013-05-18 08:17:00,
2013-05-18 03:22:00,66.5,65.6,29.94,NNE,33,0.0,0.0,97,0.00,,,0.00,Wunderground v.1.15,2013-05-18 08:22:00,
2013-05-18 03:27:00,66.5,65.6,29.94,NNE,33,0.0,0.0,97,0.00,,,0.00,Wunderground v.1.15,2013-05-18 08:27:00,
2013-05-18 03:32:00,66.4,65.5,29.94,NNE,33,0.0,0.0,97,0.00,,,0.00,Wunderground v.1.15,2013-05-18 08:32:00,
2013-05-18 03:37:00,66.4,65.5,29.94,NNE,32,0.0,0.0,97,0.00,,,0.00,Wunderground v.1.15,2013-05-18 08:37:00,
2013-05-18 03:42:00,66.3,65.4,29.94,NE,41,1.0,1.0,97,0.00,,,0.00,Wunderground v.1.15,2013-05-18 08:42:00,
2013-05-18 03:47:00,66.3,65.4,29.94,NNE,30,0.0,1.0,97,0.00,,,0.00,Wunderground v.1.15,2013-05-18 08:47:00,
2013-05-18 03:52:00,66.4,65.5,29.94,NNE,31,0.0,1.0,97,0.00,,,0.00,Wunderground v.1.15,2013-05-18 08:52:00,
2013-05-18 03:57:00,66.3,65.4,29.94,NE,46,0.0,2.0,97,0.00,,,0.00,Wunderground v.1.15,2013-05-18 08:57:00,
2013-05-18 04:02:00,66.3,65.4,29.94,North,354,0.0,1.0,97,0.00,,,0.00,Wunderground v.1.15,2013-05-18 09:02:00,
2013-05-18 04:07:00,66.3,65.4,29.94,NE,40,0.0,2.0,97,0.00,,,0.00,Wunderground v.1.15,2013-05-18 09:07:00,
2013-05-18 04:12:00,66.2,65.3,29.94,NE,49,0.0,1.0,97,0.00,,,0.00,Wunderground v.1.15,2013-05-18 09:12:00,
2013-05-18 04:17:00,66.2,65.3,29.94,North,4,2.0,4.0,97,0.00,,,0.00,Wunderground v.1.15,2013-05-18 09:17:00,
2013-05-18 04:22:00,66.1,65.2,29.94,NE,49,2.0,3.0,97,0.00,,,0.00,Wunderground v.1.15,2013-05-18 09:22:00,
2013-05-18 04:27:00,66.1,65.2,29.94,NE,40,0.0,3.0,97,0.00,,,0.00,Wunderground v.1.15,2013-05-18 09:27:00,
2013-05-18 04:32:00,66.1,65.2,29.95,NE,46,1.0,1.0,97,0.00,,,0.00,Wunderground v.1.15,2013-05-18 09:32:00,
2013-05-18 04:37:00,66.0,65.1,29.95,NE,47,2.0,3.0,97,0.00,,,0.00,Wunderground v.1.15,2013-05-18 09:37:00,
2013-05-18 04:42:00,66.0,65.1,29.95,NE,56,0.0,3.0,97,0.00,,,0.00,Wunderground v.1.15,2013-05-18 09:42:00,
2013-05-18 04:47:00,66.0,65.1,29.95,NE,41,2.0,3.0,97,0.00,,,0.00,Wunderground v.1.15,2013-05-18 09:47:00,
2013-05-18 04:53:00,66.0,65.1,29.95,NNE,30,0.0,3.0,97,0.00,,,0.00,Wunderground v.1.15,2013-05-18 09:53:00,
2013-05-18 04:58:00,66.0,65.1,29.95,NE,46,0.0,3.0,97,0.00,,,0.00,Wunderground v.1.15,2013-05-18 09:58:00,
2013-05-18 05:03:00,66.0,65.1,29.95,NE,39,1.0,3.0,97,0.00,,,0.00,Wunderground v.1.15,2013-05-18 10:03:00,
2013-05-18 05:08:00,66.0,65.1,29.95,NE,43,0.0,3.0,97,0.00,,,0.00,Wunderground v.1.15,2013-05-18 10:08:00,
2013-05-18 05:13:00,66.0,65.1,29.95,NNE,23,0.0,1.0,97,0.00,,,0.00,Wunderground v.1.15,2013-05-18 10:13:00,
2013-05-18 05:18:00,66.0,65.1,29.96,NNW,330,2.0,5.0,97,0.00,,,0.00,Wunderground v.1.15,2013-05-18 10:18:00,
2013-05-18 05:23:00,66.0,65.1,29.95,NE,44,1.0,4.0,97,0.00,,,0.00,Wunderground v.1.15,2013-05-18 10:23:00,
2013-05-18 05:28:00,66.0,65.1,29.95,NE,49,1.0,4.0,97,0.00,,,0.00,Wunderground v.1.15,2013-05-18 10:28:00,
2013-05-18 05:33:00,65.9,65.0,29.95,NNE,29,1.0,2.0,97,0.00,,,0.00,Wunderground v.1.15,2013-05-18 10:33:00,
2013-05-18 05:38:00,66.0,65.1,29.96,NE,49,0.0,2.0,97,0.00,,,0.00,Wunderground v.1.15,2013-05-18 10:38:00,
2013-05-18 05:43:00,65.9,65.0,29.96,East,80,0.0,3.0,97,0.00,,,0.00,Wunderground v.1.15,2013-05-18 10:43:00,
2013-05-18 05:48:00,65.9,65.0,29.95,ENE,57,1.0,3.0,97,0.00,,,0.00,Wunderground v.1.15,2013-05-18 10:48:00,
2013-05-18 05:53:00,65.9,65.0,29.95,NNE,21,0.0,2.0,97,0.00,,,0.00,Wunderground v.1.15,2013-05-18 10:53:00,
2013-05-18 05:58:00,65.9,65.0,29.95,ENE,64,0.0,2.0,97,0.00,,,0.00,Wunderground v.1.15,2013-05-18 10:58:00,
2013-05-18 06:03:00,65.9,65.0,29.96,NE,44,1.0,2.0,97,0.00,,,0.00,Wunderground v.1.15,2013-05-18 11:03:00,
2013-05-18 06:08:00,65.9,65.0,29.96,NE,56,1.0,2.0,97,0.00,,,0.00,Wunderground v.1.15,2013-05-18 11:08:00,
2013-05-18 06:13:00,65.9,65.0,29.96,NE,47,3.0,4.0,97,0.00,,,0.00,Wunderground v.1.15,2013-05-18 11:13:00,
2013-05-18 06:18:00,65.9,65.0,29.96,East,91,1.0,4.0,97,0.00,,,0.00,Wunderground v.1.15,2013-05-18 11:18:00,
2013-05-18 06:23:00,65.9,65.0,29.96,ENE,63,0.0,2.0,97,0.00,,,0.00,Wunderground v.1.15,2013-05-18 11:23:00,
2013-05-18 06:28:00,65.9,65.3,29.97,NE,44,0.0,3.0,98,0.00,,,0.00,Wunderground v.1.15,2013-05-18 11:28:00,
2013-05-18 06:33:00,65.9,65.3,29.97,NNE,33,0.0,2.0,98,0.00,,,0.00,Wunderground v.1.15,2013-05-18 11:33:00,
2013-05-18 06:38:00,66.0,65.4,29.97,NE,44,0.0,2.0,98,0.00,,,0.00,Wunderground v.1.15,2013-05-18 11:38:00,
2013-05-18 06:43:00,66.0,65.4,29.97,ENE,68,1.0,1.0,98,0.00,,,0.00,Wunderground v.1.15,2013-05-18 11:43:00,
2013-05-18 06:48:00,66.1,65.5,29.97,SE,128,0.0,1.0,98,0.00,,,0.00,Wunderground v.1.15,2013-05-18 11:48:00,
2013-05-18 06:53:00,66.1,65.5,29.97,ESE,117,0.0,1.0,98,0.00,,,0.00,Wunderground v.1.15,2013-05-18 11:53:00,
2013-05-18 06:58:00,66.1,65.5,29.97,ESE,117,0.0,1.0,98,0.00,,,0.00,Wunderground v.1.15,2013-05-18 11:58:00,
2013-05-18 07:03:00,66.2,65.6,29.97,ESE,117,0.0,0.0,98,0.00,,,0.00,Wunderground v.1.15,2013-05-18 12:03:00,
2013-05-18 07:08:00,66.4,65.8,29.97,ESE,117,0.0,1.0,98,0.00,,,0.00,Wunderground v.1.15,2013-05-18 12:08:00,
2013-05-18 07:13:00,66.4,65.8,29.97,ESE,117,0.0,1.0,98,0.00,,,0.00,Wunderground v.1.15,2013-05-18 12:13:00,
2013-05-18 07:18:00,66.5,65.6,29.97,East,79,1.0,1.0,97,0.00,,,0.00,Wunderground v.1.15,2013-05-18 12:18:00,
2013-05-18 07:23:00,66.5,65.6,29.97,East,79,0.0,1.0,97,0.00,,,0.00,Wunderground v.1.15,2013-05-18 12:23:00,
2013-05-18 07:28:00,66.7,65.8,29.98,ENE,68,0.0,1.0,97,0.00,,,0.00,Wunderground v.1.15,2013-05-18 12:28:00,
2013-05-18 07:33:00,66.8,65.9,29.98,ENE,75,0.0,1.0,97,0.00,,,0.00,Wunderground v.1.15,2013-05-18 12:33:00,
2013-05-18 07:38:00,66.9,66.0,29.98,ENE,65,2.0,2.0,97,0.00,,,0.00,Wunderground v.1.15,2013-05-18 12:38:00,
2013-05-18 07:43:00,66.9,66.0,29.98,East,101,3.0,4.0,97,0.00,,,0.00,Wunderground v.1.15,2013-05-18 12:43:00,
2013-05-18 07:48:00,67.0,66.1,29.99,ESE,112,0.0,4.0,97,0.00,,,0.00,Wunderground v.1.15,2013-05-18 12:48:00,
2013-05-18 07:53:00,67.0,65.8,29.99,NE,47,0.0,2.0,96,0.00,,,0.00,Wunderground v.1.15,2013-05-18 12:53:00,
2013-05-18 07:58:00,67.2,66.0,29.99,NE,46,0.0,2.0,96,0.00,,,0.00,Wunderground v.1.15,2013-05-18 12:58:00,
2013-05-18 08:03:00,67.2,65.7,29.99,NE,46,0.0,1.0,95,0.00,,,0.00,Wunderground v.1.15,2013-05-18 13:03:00,
2013-05-18 08:08:00,67.4,65.9,29.99,NE,47,1.0,1.0,95,0.00,,,0.00,Wunderground v.1.15,2013-05-18 13:08:00,
2013-05-18 08:13:00,67.5,65.7,29.99,NE,56,0.0,2.0,94,0.00,,,0.00,Wunderground v.1.15,2013-05-18 13:13:00,
2013-05-18 08:18:00,67.6,65.8,29.99,NNW,328,1.0,2.0,94,0.00,,,0.00,Wunderground v.1.15,2013-05-18 13:18:00,
2013-05-18 08:23:00,67.8,66.0,30.00,North,6,0.0,2.0,94,0.00,,,0.00,Wunderground v.1.15,2013-05-18 13:23:00,
2013-05-18 08:28:00,68.0,65.9,30.00,NW,316,1.0,2.0,93,0.00,,,0.00,Wunderground v.1.15,2013-05-18 13:28:00,
2013-05-18 08:33:00,67.9,65.8,30.00,NW,314,0.0,2.0,93,0.00,,,0.00,Wunderground v.1.15,2013-05-18 13:33:00,
2013-05-18 08:38:00,67.9,65.8,30.00,NW,314,0.0,2.0,93,0.00,,,0.00,Wunderground v.1.15,2013-05-18 13:38:00,
2013-05-18 08:43:00,68.0,65.9,30.00,NW,314,0.0,1.0,93,0.00,,,0.00,Wunderground v.1.15,2013-05-18 13:43:00,
2013-05-18 08:48:00,67.9,65.5,30.00,NW,315,0.0,1.0,92,0.00,,,0.00,Wunderground v.1.15,2013-05-18 13:48:00,
2013-05-18 08:53:00,68.1,66.0,30.00,SSE,153,1.0,1.0,93,0.00,,,0.00,Wunderground v.1.15,2013-05-18 13:53:00,
2013-05-18 08:58:00,68.1,65.7,30.00,SE,146,0.0,1.0,92,0.00,,,0.00,Wunderground v.1.15,2013-05-18 13:58:00,
2013-05-18 09:03:00,68.4,66.3,30.00,SSE,148,0.0,0.0,93,0.00,,,0.00,Wunderground v.1.15,2013-05-18 14:03:00,
2013-05-18 09:08:00,68.4,66.0,30.00,SE,145,0.0,1.0,92,0.00,,,0.00,Wunderground v.1.15,2013-05-18 14:08:00,
2013-05-18 09:13:00,68.6,65.9,30.00,SE,145,0.0,0.0,91,0.00,,,0.00,Wunderground v.1.15,2013-05-18 14:13:00,
2013-05-18 09:18:00,68.7,66.0,30.00,SE,145,0.0,1.0,91,0.00,,,0.00,Wunderground v.1.15,2013-05-18 14:18:00,
2013-05-18 09:23:00,68.9,66.2,30.00,SE,143,0.0,1.0,91,0.00,,,0.00,Wunderground v.1.15,2013-05-18 14:23:00,
2013-05-18 09:28:00,69.0,66.3,29.99,SSW,205,0.0,1.0,91,0.00,,,0.00,Wunderground v.1.15,2013-05-18 14:28:00,
2013-05-18 09:33:00,69.2,66.1,29.99,SW,225,0.0,0.0,90,0.00,,,0.00,Wunderground v.1.15,2013-05-18 14:33:00,
2013-05-18 09:38:00,69.4,66.3,29.99,SW,225,0.0,1.0,90,0.00,,,0.00,Wunderground v.1.15,2013-05-18 14:38:00,
2013-05-18 09:43:00,69.4,66.3,29.99,WSW,245,0.0,1.0,90,0.00,,,0.00,Wunderground v.1.15,2013-05-18 14:43:00,
2013-05-18 09:48:00,69.5,66.4,29.99,SW,219,0.0,2.0,90,0.00,,,0.00,Wunderground v.1.15,2013-05-18 14:48:00,
2013-05-18 09:53:00,69.6,66.5,29.99,SW,215,1.0,1.0,90,0.00,,,0.00,Wunderground v.1.15,2013-05-18 14:53:00,
2013-05-18 09:58:00,69.5,66.1,29.99,WNW,284,2.0,2.0,89,0.00,,,0.00,Wunderground v.1.15,2013-05-18 14:58:00,
2013-05-18 10:03:00,69.3,66.2,29.99,WNW,288,0.0,1.0,90,0.00,,,0.00,Wunderground v.1.15,2013-05-18 15:03:00,
2013-05-18 10:08:00,69.3,66.2,29.99,WNW,294,0.0,2.0,90,0.00,,,0.00,Wunderground v.1.15,2013-05-18 15:08:00,
2013-05-18 10:13:00,69.3,66.2,30.00,NW,314,1.0,2.0,90,0.00,,,0.00,Wunderground v.1.15,2013-05-18 15:13:00,
2013-05-18 10:18:00,69.4,66.0,30.00,NW,314,0.0,2.0,89,0.00,,,0.00,Wunderground v.1.15,2013-05-18 15:18:00,
2013-05-18 10:23:00,69.6,66.2,30.00,NW,314,0.0,1.0,89,0.00,,,0.00,Wunderground v.1.15,2013-05-18 15:23:00,
2013-05-18 10:28:00,69.7,66.3,30.00,NNW,340,0.0,2.0,89,0.00,,,0.00,Wunderground v.1.15,2013-05-18 15:28:00,
2013-05-18 10:33:00,69.9,66.5,30.00,ESE,120,1.0,2.0,89,0.00,,,0.00,Wunderground v.1.15,2013-05-18 15:33:00,
2013-05-18 10:38:00,70.4,66.7,30.00,East,79,0.0,2.0,88,0.00,,,0.00,Wunderground v.1.15,2013-05-18 15:38:00,
2013-05-18 10:43:00,70.4,66.0,30.00,WNW,284,0.0,2.0,86,0.00,,,0.00,Wunderground v.1.15,2013-05-18 15:43:00,
2013-05-18 10:48:00,70.7,66.6,30.00,NNE,16,1.0,3.0,87,0.00,,,0.00,Wunderground v.1.15,2013-05-18 15:48:00,
2013-05-18 10:53:00,70.8,66.7,30.00,NE,51,0.0,2.0,87,0.00,,,0.00,Wunderground v.1.15,2013-05-18 15:53:00,
2013-05-18 10:58:00,71.2,67.1,30.00,NE,51,0.0,2.0,87,0.00,,,0.00,Wunderground v.1.15,2013-05-18 15:58:00,
2013-05-18 11:03:00,71.0,66.3,29.99,NW,323,2.0,3.0,85,0.00,,,0.00,Wunderground v.1.15,2013-05-18 16:03:00,
2013-05-18 11:08:00,70.7,66.3,29.99,WNW,300,2.0,3.0,86,0.00,,,0.00,Wunderground v.1.15,2013-05-18 16:08:00,
2013-05-18 11:13:00,70.7,66.3,29.99,WNW,295,0.0,2.0,86,0.00,,,0.00,Wunderground v.1.15,2013-05-18 16:13:00,
2013-05-18 11:18:00,70.9,66.5,30.00,WSW,258,0.0,2.0,86,0.00,,,0.00,Wunderground v.1.15,2013-05-18 16:18:00,
2013-05-18 11:23:00,71.2,66.5,30.00,NNW,340,0.0,2.0,85,0.00,,,0.00,Wunderground v.1.15,2013-05-18 16:23:00,
2013-05-18 11:28:00,71.2,66.5,30.00,WNW,300,0.0,2.0,85,0.00,,,0.00,Wunderground v.1.15,2013-05-18 16:28:00,
2013-05-18 11:33:00,71.5,66.8,30.00,WSW,242,1.0,1.0,85,0.00,,,0.00,Wunderground v.1.15,2013-05-18 16:33:00,
2013-05-18 11:38:00,71.8,66.7,29.99,WSW,238,0.0,3.0,84,0.00,,,0.00,Wunderground v.1.15,2013-05-18 16:38:00,
2013-05-18 11:43:00,71.8,66.4,30.00,NW,322,0.0,3.0,83,0.00,,,0.00,Wunderground v.1.15,2013-05-18 16:43:00,
2013-05-18 11:48:00,72.0,66.9,29.99,NNE,20,1.0,3.0,84,0.00,,,0.00,Wunderground v.1.15,2013-05-18 16:48:00,
2013-05-18 11:53:00,72.6,67.1,29.99,NNE,15,0.0,1.0,83,0.00,,,0.00,Wunderground v.1.15,2013-05-18 16:53:00,
2013-05-18 11:58:00,73.0,66.8,29.99,NE,47,1.0,2.0,81,0.00,,,0.00,Wunderground v.1.15,2013-05-18 16:58:00,
2013-05-18 12:03:00,73.2,67.0,29.99,SE,132,0.0,2.0,81,0.00,,,0.00,Wunderground v.1.15,2013-05-18 17:03:00,
2013-05-18 12:08:00,73.7,67.5,29.99,SE,127,0.0,2.0,81,0.00,,,0.00,Wunderground v.1.15,2013-05-18 17:08:00,
2013-05-18 12:13:00,74.2,67.3,29.99,WNW,291,1.0,2.0,79,0.00,,,0.00,Wunderground v.1.15,2013-05-18 17:13:00,
2013-05-18 12:18:00,74.1,67.9,29.98,NNE,12,1.0,2.0,81,0.00,,,0.00,Wunderground v.1.15,2013-05-18 17:18:00,
2013-05-18 12:23:00,74.1,67.5,29.98,West,264,1.0,2.0,80,0.00,,,0.00,Wunderground v.1.15,2013-05-18 17:23:00,
2013-05-18 12:28:00,73.8,67.2,29.98,WSW,239,0.0,2.0,80,0.00,,,0.00,Wunderground v.1.15,2013-05-18 17:28:00,
2013-05-18 12:33:00,74.2,67.3,29.98,SW,229,0.0,2.0,79,0.00,,,0.00,Wunderground v.1.15,2013-05-18 17:33:00,
2013-05-18 12:38:00,74.8,67.1,29.98,SE,132,0.0,3.0,77,0.00,,,0.00,Wunderground v.1.15,2013-05-18 17:38:00,
2013-05-18 12:43:00,75.6,67.5,29.98,SE,134,0.0,4.0,76,0.00,,,0.00,Wunderground v.1.15,2013-05-18 17:43:00,
2013-05-18 12:48:00,76.4,67.9,29.97,East,84,2.0,4.0,75,0.00,,,0.00,Wunderground v.1.15,2013-05-18 17:48:00,
2013-05-18 12:53:00,76.3,67.4,29.97,East,89,1.0,6.0,74,0.00,,,0.00,Wunderground v.1.15,2013-05-18 17:53:00,
2013-05-18 12:58:00,76.1,66.8,29.97,SE,131,2.0,6.0,73,0.00,,,0.00,Wunderground v.1.15,2013-05-18 17:58:00,
2013-05-18 13:03:00,76.1,68.0,29.97,East,83,3.0,6.0,76,0.00,,,0.00,Wunderground v.1.15,2013-05-18 18:03:00,
2013-05-18 13:08:00,76.0,67.1,29.97,NE,51,5.0,6.0,74,0.00,,,0.00,Wunderground v.1.15,2013-05-18 18:08:00,
2013-05-18 13:13:00,76.1,67.2,29.97,SSE,162,2.0,5.0,74,0.00,,,0.00,Wunderground v.1.15,2013-05-18 18:13:00,
2013-05-18 13:18:00,76.5,66.8,29.97,ENE,58,0.0,5.0,72,0.00,,,0.00,Wunderground v.1.15,2013-05-18 18:18:00,
2013-05-18 13:23:00,76.8,66.7,29.97,NNW,333,0.0,4.0,71,0.00,,,0.00,Wunderground v.1.15,2013-05-18 18:23:00,
2013-05-18 13:28:00,77.1,67.0,29.96,WSW,252,1.0,4.0,71,0.00,,,0.00,Wunderground v.1.15,2013-05-18 18:28:00,
2013-05-18 13:33:00,77.7,67.1,29.96,East,91,1.0,2.0,70,0.00,,,0.00,Wunderground v.1.15,2013-05-18 18:33:00,
2013-05-18 13:39:00,77.9,66.9,29.96,SW,215,2.0,3.0,69,0.00,,,0.00,Wunderground v.1.15,2013-05-18 18:39:00,
2013-05-18 13:44:00,78.7,67.2,29.96,WSW,252,0.0,2.0,68,0.00,,,0.00,Wunderground v.1.15,2013-05-18 18:44:00,
2013-05-18 13:49:00,79.0,66.7,29.96,SSE,153,2.0,5.0,66,0.00,,,0.00,Wunderground v.1.15,2013-05-18 18:49:00,
2013-05-18 13:54:00,78.5,67.1,29.96,East,86,1.0,5.0,68,0.00,,,0.00,Wunderground v.1.15,2013-05-18 18:54:00,
2013-05-18 13:59:00,78.1,67.1,29.96,NW,318,1.0,5.0,69,0.00,,,0.00,Wunderground v.1.15,2013-05-18 18:59:00,
2013-05-18 14:04:00,78.1,67.5,29.96,East,84,0.0,2.0,70,0.00,,,0.00,Wunderground v.1.15,2013-05-18 19:04:00,
2013-05-18 14:09:00,78.5,66.6,29.96,ENE,78,2.0,5.0,67,0.00,,,0.00,Wunderground v.1.15,2013-05-18 19:09:00,
2013-05-18 14:14:00,78.6,66.7,29.96,SSE,162,1.0,2.0,67,0.00,,,0.00,Wunderground v.1.15,2013-05-18 19:14:00,
2013-05-18 14:19:00,79.4,66.6,29.95,NE,43,1.0,4.0,65,0.00,,,0.00,Wunderground v.1.15,2013-05-18 19:19:00,
2013-05-18 14:24:00,79.6,66.8,29.96,NNE,20,0.0,2.0,65,0.00,,,0.00,Wunderground v.1.15,2013-05-18 19:24:00,
2013-05-18 14:29:00,79.4,67.5,29.95,WNW,294,3.0,5.0,67,0.00,,,0.00,Wunderground v.1.15,2013-05-18 19:29:00,
2013-05-18 14:34:00,79.0,66.7,29.95,NW,317,2.0,4.0,66,0.00,,,0.00,Wunderground v.1.15,2013-05-18 19:34:00,
2013-05-18 14:39:00,79.6,67.7,29.95,WNW,297,1.0,4.0,67,0.00,,,0.00,Wunderground v.1.15,2013-05-18 19:39:00,
2013-05-18 14:44:00,81.0,67.2,29.95,SW,219,0.0,3.0,63,0.00,,,0.00,Wunderground v.1.15,2013-05-18 19:44:00,
2013-05-18 14:49:00,81.6,67.8,29.95,WSW,250,2.0,4.0,63,0.00,,,0.00,Wunderground v.1.15,2013-05-18 19:49:00,
2013-05-18 14:54:00,80.7,66.9,29.95,West,276,3.0,4.0,63,0.00,,,0.00,Wunderground v.1.15,2013-05-18 19:54:00,
2013-05-18 14:59:00,80.3,67.5,29.95,South,180,3.0,5.0,65,0.00,,,0.00,Wunderground v.1.15,2013-05-18 19:59:00,
2013-05-18 15:04:00,81.1,67.8,29.95,SW,233,1.0,3.0,64,0.00,,,0.00,Wunderground v.1.15,2013-05-18 20:04:00,
2013-05-18 15:09:00,81.3,67.0,29.95,West,264,1.0,3.0,62,0.00,,,0.00,Wunderground v.1.15,2013-05-18 20:09:00,
2013-05-18 15:14:00,81.0,67.2,29.94,WNW,294,0.0,4.0,63,0.00,,,0.00,Wunderground v.1.15,2013-05-18 20:14:00,
2013-05-18 15:19:00,81.0,68.1,29.94,ENE,60,1.0,5.0,65,0.00,,,0.00,Wunderground v.1.15,2013-05-18 20:19:00,
2013-05-18 15:24:00,80.9,68.0,29.94,East,88,1.0,3.0,65,0.00,,,0.00,Wunderground v.1.15,2013-05-18 20:24:00,
2013-05-18 15:29:00,80.2,66.9,29.94,NNE,33,1.0,3.0,64,0.00,,,0.00,Wunderground v.1.15,2013-05-18 20:29:00,
2013-05-18 15:34:00,79.6,66.8,29.94,ESE,111,0.0,3.0,65,0.00,,,0.00,Wunderground v.1.15,2013-05-18 20:34:00,
2013-05-18 15:39:00,79.6,67.7,29.94,East,88,2.0,4.0,67,0.00,,,0.00,Wunderground v.1.15,2013-05-18 20:39:00,
2013-05-18 15:44:00,79.5,66.7,29.94,ESE,107,0.0,2.0,65,0.00,,,0.00,Wunderground v.1.15,2013-05-18 20:44:00,
2013-05-18 15:49:00,79.8,67.4,29.94,East,91,1.0,3.0,66,0.00,,,0.00,Wunderground v.1.15,2013-05-18 20:49:00,
2013-05-18 15:54:00,80.3,67.9,29.93,SSE,151,1.0,3.0,66,0.00,,,0.00,Wunderground v.1.15,2013-05-18 20:54:00,
2013-05-18 15:59:00,80.2,66.9,29.93,ESE,118,0.0,3.0,64,0.00,,,0.00,Wunderground v.1.15,2013-05-18 20:59:00,
2013-05-18 16:04:00,80.1,66.4,29.93,ESE,106,2.0,3.0,63,0.00,,,0.00,Wunderground v.1.15,2013-05-18 21:04:00,
2013-05-18 16:09:00,80.6,67.7,29.93,SE,124,1.0,4.0,65,0.00,,,0.00,Wunderground v.1.15,2013-05-18 21:09:00,
2013-05-18 16:14:00,81.0,67.2,29.93,NE,39,1.0,2.0,63,0.00,,,0.00,Wunderground v.1.15,2013-05-18 21:14:00,
2013-05-18 16:19:00,81.4,68.1,29.93,North,5,0.0,3.0,64,0.00,,,0.00,Wunderground v.1.15,2013-05-18 21:19:00,
2013-05-18 16:24:00,81.8,67.5,29.93,ESE,123,1.0,2.0,62,0.00,,,0.00,Wunderground v.1.15,2013-05-18 21:24:00,
2013-05-18 16:29:00,82.7,67.9,29.93,WSW,238,1.0,2.0,61,0.00,,,0.00,Wunderground v.1.15,2013-05-18 21:29:00,
2013-05-18 16:34:00,83.2,68.3,29.93,South,179,2.0,2.0,61,0.00,,,0.00,Wunderground v.1.15,2013-05-18 21:34:00,
2013-05-18 16:39:00,83.1,68.3,29.93,WNW,283,0.0,4.0,61,0.00,,,0.00,Wunderground v.1.15,2013-05-18 21:39:00,
2013-05-18 16:44:00,82.7,66.9,29.93,SW,220,1.0,4.0,59,0.00,,,0.00,Wunderground v.1.15,2013-05-18 21:44:00,
2013-05-18 16:49:00,82.6,66.8,29.93,NW,304,1.0,4.0,59,0.00,,,0.00,Wunderground v.1.15,2013-05-18 21:49:00,
2013-05-18 16:54:00,82.9,67.1,29.93,NNE,29,0.0,2.0,59,0.00,,,0.00,Wunderground v.1.15,2013-05-18 21:54:00,
2013-05-18 16:59:00,83.3,67.5,29.93,SW,229,0.0,3.0,59,0.00,,,0.00,Wunderground v.1.15,2013-05-18 21:59:00,
2013-05-18 17:04:00,83.0,66.7,29.93,West,270,1.0,3.0,58,0.00,,,0.00,Wunderground v.1.15,2013-05-18 22:04:00,
2013-05-18 17:09:00,83.0,66.7,29.93,WNW,287,2.0,4.0,58,0.00,,,0.00,Wunderground v.1.15,2013-05-18 22:09:00,
2013-05-18 17:14:00,82.7,66.4,29.93,WSW,243,0.0,3.0,58,0.00,,,0.00,Wunderground v.1.15,2013-05-18 22:14:00,
2013-05-18 17:19:00,82.8,66.0,29.93,North,11,1.0,3.0,57,0.00,,,0.00,Wunderground v.1.15,2013-05-18 22:19:00,
2013-05-18 17:24:00,83.3,67.0,29.93,SSW,205,2.0,4.0,58,0.00,,,0.00,Wunderground v.1.15,2013-05-18 22:24:00,
2013-05-18 17:29:00,83.2,66.9,29.93,SSW,206,1.0,4.0,58,0.00,,,0.00,Wunderground v.1.15,2013-05-18 22:29:00,
2013-05-18 17:34:00,83.2,66.9,29.93,SE,125,0.0,2.0,58,0.00,,,0.00,Wunderground v.1.15,2013-05-18 22:34:00,
2013-05-18 17:39:00,83.3,67.5,29.93,WSW,240,1.0,2.0,59,0.00,,,0.00,Wunderground v.1.15,2013-05-18 22:39:00,
2013-05-18 17:44:00,83.4,67.1,29.92,South,184,1.0,3.0,58,0.00,,,0.00,Wunderground v.1.15,2013-05-18 22:44:00,
2013-05-18 17:49:00,83.6,66.8,29.92,WSW,246,0.0,3.0,57,0.00,,,0.00,Wunderground v.1.15,2013-05-18 22:49:00,
2013-05-18 17:54:00,83.6,67.8,29.92,SW,235,0.0,2.0,59,0.00,,,0.00,Wunderground v.1.15,2013-05-18 22:54:00,
2013-05-18 17:59:00,83.3,66.5,29.92,WNW,295,1.0,2.0,57,0.00,,,0.00,Wunderground v.1.15,2013-05-18 22:59:00,
2013-05-18 18:04:00,82.8,67.0,29.93,SSW,204,0.0,4.0,59,0.00,,,0.00,Wunderground v.1.15,2013-05-18 23:04:00,
2013-05-18 18:09:00,82.7,66.9,29.93,SW,222,2.0,4.0,59,0.00,,,0.00,Wunderground v.1.15,2013-05-18 23:09:00,
2013-05-18 18:14:00,82.5,67.2,29.93,SW,221,0.0,2.0,60,0.00,,,0.00,Wunderground v.1.15,2013-05-18 23:14:00,
2013-05-18 18:19:00,82.3,67.5,29.93,SSE,151,2.0,2.0,61,0.00,,,0.00,Wunderground v.1.15,2013-05-18 23:19:00,
2013-05-18 18:24:00,81.6,67.8,29.93,SW,226,1.0,2.0,63,0.00,,,0.00,Wunderground v.1.15,2013-05-18 23:24:00,
2013-05-18 18:29:00,81.1,67.3,29.93,SW,229,1.0,2.0,63,0.00,,,0.00,Wunderground v.1.15,2013-05-18 23:29:00,
2013-05-18 18:34:00,80.9,67.6,29.93,SW,228,0.0,1.0,64,0.00,,,0.00,Wunderground v.1.15,2013-05-18 23:34:00,
2013-05-18 18:39:00,80.8,67.0,29.93,SE,134,0.0,1.0,63,0.00,,,0.00,Wunderground v.1.15,2013-05-18 23:39:00,
2013-05-18 18:44:00,81.0,67.7,29.93,SE,136,0.0,1.0,64,0.00,,,0.00,Wunderground v.1.15,2013-05-18 23:44:00,
2013-05-18 18:49:00,81.6,68.2,29.93,SSE,160,0.0,1.0,64,0.00,,,0.00,Wunderground v.1.15,2013-05-18 23:49:00,
2013-05-18 18:54:00,81.5,68.1,29.92,SW,219,0.0,1.0,64,0.00,,,0.00,Wunderground v.1.15,2013-05-18 23:54:00,
2013-05-18 18:59:00,80.9,67.6,29.92,SSE,150,0.0,1.0,64,0.00,,,0.00,Wunderground v.1.15,2013-05-18 23:59:00,
2013-05-18 19:04:00,80.4,67.6,29.92,SE,146,0.0,1.0,65,0.00,,,0.00,Wunderground v.1.15,2013-05-19 00:04:00,
2013-05-18 19:09:00,80.1,68.6,29.92,SSE,147,0.0,1.0,68,0.00,,,0.00,Wunderground v.1.15,2013-05-19 00:09:00,
2013-05-18 19:14:00,79.8,69.1,29.92,SE,145,0.0,1.0,70,0.00,,,0.00,Wunderground v.1.15,2013-05-19 00:14:00,
2013-05-18 19:19:00,79.5,68.9,29.92,SE,144,0.0,1.0,70,0.00,,,0.00,Wunderground v.1.15,2013-05-19 00:19:00,
2013-05-18 19:24:00,79.1,68.9,29.92,SE,143,0.0,0.0,71,0.00,,,0.00,Wunderground v.1.15,2013-05-19 00:24:00,
2013-05-18 19:29:00,78.7,68.9,29.92,SE,144,0.0,0.0,72,0.00,,,0.00,Wunderground v.1.15,2013-05-19 00:29:00,
2013-05-18 19:34:00,78.0,68.6,29.92,SE,143,0.0,0.0,73,0.00,,,0.00,Wunderground v.1.15,2013-05-19 00:34:00,
2013-05-18 19:39:00,77.4,68.5,29.92,SE,144,0.0,1.0,74,0.00,,,0.00,Wunderground v.1.15,2013-05-19 00:39:00,
2013-05-18 19:44:00,76.8,68.3,29.92,SE,143,0.0,0.0,75,0.00,,,0.00,Wunderground v.1.15,2013-05-19 00:44:00,
2013-05-18 19:49:00,76.4,68.3,29.92,SE,143,0.0,0.0,76,0.00,,,0.00,Wunderground v.1.15,2013-05-19 00:49:00,
2013-05-18 19:55:00,75.8,67.7,29.92,SE,141,0.0,1.0,76,0.00,,,0.00,Wunderground v.1.15,2013-05-19 00:55:00,
2013-05-18 20:00:00,75.3,67.6,29.92,SE,142,1.0,1.0,77,0.00,,,0.00,Wunderground v.1.15,2013-05-19 01:00:00,
2013-05-18 20:05:00,75.0,67.7,29.92,ESE,122,0.0,1.0,78,0.00,,,0.00,Wunderground v.1.15,2013-05-19 01:05:00,
2013-05-18 20:10:00,74.8,67.5,29.92,SE,134,0.0,0.0,78,0.00,,,0.00,Wunderground v.1.15,2013-05-19 01:10:00,
2013-05-18 20:15:00,74.2,67.3,29.92,SSE,150,0.0,0.0,79,0.00,,,0.00,Wunderground v.1.15,2013-05-19 01:15:00,
2013-05-18 20:20:00,74.1,67.2,29.92,ESE,113,1.0,2.0,79,0.00,,,0.00,Wunderground v.1.15,2013-05-19 01:20:00,
2013-05-18 20:26:00,74.2,67.3,29.92,ESE,108,1.0,2.0,79,0.00,,,0.00,Wunderground v.1.15,2013-05-19 01:26:00,
2013-05-18 20:31:00,73.8,67.2,29.92,ESE,120,1.0,1.0,80,0.00,,,0.00,Wunderground v.1.15,2013-05-19 01:31:00,
2013-05-18 20:36:00,73.8,67.2,29.92,SE,134,0.0,2.0,80,0.00,,,0.00,Wunderground v.1.15,2013-05-19 01:36:00,
2013-05-18 20:41:00,73.7,67.5,29.93,SE,140,0.0,0.0,81,0.00,,,0.00,Wunderground v.1.15,2013-05-19 01:41:00,
2013-05-18 20:46:00,73.4,67.2,29.93,SE,141,1.0,1.0,81,0.00,,,0.00,Wunderground v.1.15,2013-05-19 01:46:00,
2013-05-18 20:51:00,73.1,67.3,29.93,SE,142,0.0,1.0,82,0.00,,,0.00,Wunderground v.1.15,2013-05-19 01:51:00,
2013-05-18 20:56:00,73.2,67.4,29.93,SE,132,0.0,2.0,82,0.00,,,0.00,Wunderground v.1.15,2013-05-19 01:56:00,
2013-05-18 21:01:00,73.2,67.4,29.93,ESE,117,0.0,0.0,82,0.00,,,0.00,Wunderground v.1.15,2013-05-19 02:01:00,
2013-05-18 21:06:00,73.2,67.4,29.93,SE,134,0.0,1.0,82,0.00,,,0.00,Wunderground v.1.15,2013-05-19 02:06:00,
2013-05-18 21:11:00,73.1,67.3,29.93,SE,138,0.0,1.0,82,0.00,,,0.00,Wunderground v.1.15,2013-05-19 02:11:00,
2013-05-18 21:16:00,73.0,67.2,29.93,SE,131,1.0,2.0,82,0.00,,,0.00,Wunderground v.1.15,2013-05-19 02:16:00,
2013-05-18 21:21:00,72.9,67.1,29.93,SE,138,0.0,1.0,82,0.00,,,0.00,Wunderground v.1.15,2013-05-19 02:21:00,
2013-05-18 21:26:00,72.7,66.9,29.93,SSE,153,0.0,1.0,82,0.00,,,0.00,Wunderground v.1.15,2013-05-19 02:26:00,
2013-05-18 21:31:00,72.7,66.9,29.93,SE,141,0.0,1.0,82,0.00,,,0.00,Wunderground v.1.15,2013-05-19 02:31:00,
2013-05-18 21:36:00,72.7,66.5,29.93,SE,138,0.0,2.0,81,0.00,,,0.00,Wunderground v.1.15,2013-05-19 02:36:00,
2013-05-18 21:41:00,72.7,66.5,29.93,SE,127,0.0,0.0,81,0.00,,,0.00,Wunderground v.1.15,2013-05-19 02:41:00,
2013-05-18 21:46:00,72.7,66.5,29.93,SE,141,0.0,2.0,81,0.00,,,0.00,Wunderground v.1.15,2013-05-19 02:46:00,
2013-05-18 21:51:00,72.7,66.2,29.93,SE,132,0.0,2.0,80,0.00,,,0.00,Wunderground v.1.15,2013-05-19 02:51:00,
2013-05-18 21:56:00,72.6,66.4,29.93,ESE,117,1.0,2.0,81,0.00,,,0.00,Wunderground v.1.15,2013-05-19 02:56:00,
2013-05-18 22:01:00,72.6,66.1,29.93,ESE,109,1.0,2.0,80,0.00,,,0.00,Wunderground v.1.15,2013-05-19 03:01:00,
2013-05-18 22:06:00,72.6,66.1,29.93,SE,143,0.0,2.0,80,0.00,,,0.00,Wunderground v.1.15,2013-05-19 03:06:00,
2013-05-18 22:11:00,72.7,66.2,29.93,SE,140,0.0,1.0,80,0.00,,,0.00,Wunderground v.1.15,2013-05-19 03:11:00,
2013-05-18 22:16:00,72.6,66.1,29.93,East,85,0.0,1.0,80,0.00,,,0.00,Wunderground v.1.15,2013-05-19 03:16:00,
2013-05-18 22:21:00,72.6,66.1,29.93,SSE,153,0.0,1.0,80,0.00,,,0.00,Wunderground v.1.15,2013-05-19 03:21:00,
2013-05-18 22:26:00,72.6,66.1,29.92,SE,133,1.0,1.0,80,0.00,,,0.00,Wunderground v.1.15,2013-05-19 03:26:00,
2013-05-18 22:31:00,72.5,66.0,29.92,ESE,112,1.0,2.0,80,0.00,,,0.00,Wunderground v.1.15,2013-05-19 03:31:00,
2013-05-18 22:36:00,72.4,65.9,29.92,SE,125,0.0,2.0,80,0.00,,,0.00,Wunderground v.1.15,2013-05-19 03:36:00,
2013-05-18 22:41:00,72.3,66.1,29.92,ESE,115,0.0,1.0,81,0.00,,,0.00,Wunderground v.1.15,2013-05-19 03:41:00,
2013-05-18 22:46:00,72.2,66.0,29.92,SE,131,0.0,1.0,81,0.00,,,0.00,Wunderground v.1.15,2013-05-19 03:46:00,
2013-05-18 22:51:00,72.3,66.1,29.92,SSE,149,0.0,0.0,81,0.00,,,0.00,Wunderground v.1.15,2013-05-19 03:51:00,
2013-05-18 22:56:00,72.4,66.2,29.92,East,88,2.0,2.0,81,0.00,,,0.00,Wunderground v.1.15,2013-05-19 03:56:00,
2013-05-18 23:01:00,72.6,66.4,29.92,SE,136,0.0,2.0,81,0.00,,,0.00,Wunderground v.1.15,2013-05-19 04:01:00,
2013-05-18 23:06:00,72.7,66.2,29.92,SE,139,1.0,2.0,80,0.00,,,0.00,Wunderground v.1.15,2013-05-19 04:06:00,
2013-05-18 23:11:00,72.8,66.3,29.92,SE,142,0.0,1.0,80,0.00,,,0.00,Wunderground v.1.15,2013-05-19 04:11:00,
2013-05-18 23:16:00,72.8,66.3,29.91,SE,143,0.0,2.0,80,0.00,,,0.00,Wunderground v.1.15,2013-05-19 04:16:00,
2013-05-18 23:21:00,72.7,66.5,29.91,ESE,115,0.0,1.0,81,0.00,,,0.00,Wunderground v.1.15,2013-05-19 04:21:00,
2013-05-18 23:27:00,72.6,66.4,29.92,ESE,114,0.0,1.0,81,0.00,,,0.00,Wunderground v.1.15,2013-05-19 04:27:00,
2013-05-18 23:32:00,72.4,66.2,29.92,ESE,114,0.0,0.0,81,0.00,,,0.00,Wunderground v.1.15,2013-05-19 04:32:00,
2013-05-18 23:36:00,72.1,66.3,29.92,ESE,114,0.0,0.0,82,0.00,,,0.00,Wunderground v.1.15,2013-05-19 04:36:00,
2013-05-18 23:41:00,71.8,66.4,29.92,ESE,114,0.0,0.0,83,0.00,,,0.00,Wunderground v.1.15,2013-05-19 04:41:00,
2013-05-18 23:46:00,71.6,66.5,29.92,ESE,114,0.0,0.0,84,0.00,,,0.00,Wunderground v.1.15,2013-05-19 04:46:00,
2013-05-18 23:51:00,71.5,66.4,29.92,ESE,116,0.0,1.0,84,0.00,,,0.00,Wunderground v.1.15,2013-05-19 04:51:00,
2013-05-18 23:56:00,71.4,66.3,29.92,ESE,115,0.0,1.0,84,0.00,,,0.00,Wunderground v.1.15,2013-05-19 04:56:00,